Home   Weather   Alajuela   Past weeks

Flag for Costa Rica Past Weather in Alajuela, Costa Rica — Yesterday and Last 2 Weeks

Now
68 °F

Clear.


Feels Like: 68 °F
Forecast: 62 / 82 °F
Wind: 12 mph from East

Location: Juan Santamaria

Current Time: Dec 7, 2016 at 2:54:00 am

Latest Report: Dec 7, 2016 at 2:00 am


Visibility: 10 mi

Pressure: 29.98 "Hg (26.82 "Hg at 955m altitude)

Humidity: 73%

Dew Point: 59 °F

Location of AlajuelaLocation

Past Weather in Alajuela — Graph

°F

Alajuela Temperature Yesterday

Maximum temperature yesterday: 84 °F (at 2:00 pm)
Minimum temperature yesterday: 61 °F (at 5:00 am)
Average temperature yesterday: 71 °F

High & Low Weather Summary for the Past Weeks

 TemperatureHumidityPressure
High84 °F (Nov 24, 2:00 am)100% (Nov 25, 7:00 pm)30.08 "Hg (Nov 25, 7:00 pm)
Low61 °F (Dec 6, 5:00 am)33% (Dec 2, 12:00 pm)29.89 "Hg (Nov 29, 3:00 pm)
Average71 °F81%29.99 "Hg
* Reported Nov 22 1:00 am — Dec 7 1:00 am, Alajuela, Weather by CustomWeather, © 2016

Note: Actual official high and low records may vary slightly from our data, if they occured in-between our weather recording intervals... More about our weather records

Advertising

Alajuela Weather History for the Previous 24 Hours

Scroll right to see more
 ConditionsComfort  
Time TempWeatherWind HumidityBarometerVisibility
1:00 am
Wed, Dec 7
70 °FClear.12 mph64%30.01 "Hg10 mi
12:00 am68 °FClear.9 mph73%30.02 "Hg10 mi
11:00 pm
Tue, Dec 6
68 °FClear.7 mph73%30.03 "Hg10 mi
10:00 pm68 °FClear.7 mph73%30.04 "Hg10 mi
9:00 pm68 °FPassing clouds.No wind83%30.05 "HgN/A
8:00 pm68 °FFog.3 mph94%30.05 "Hg1 mi
7:00 pm70 °FPassing clouds.3 mph88%30.03 "HgN/A
6:00 pm70 °FPassing clouds.2 mph94%30.01 "Hg4 mi
5:00 pm70 °FScattered clouds.8 mph94%29.99 "HgN/A
4:00 pm75 °FPassing clouds.10 mph78%29.96 "HgN/A
3:00 pm79 °FScattered clouds.8 mph70%29.96 "Hg10 mi
2:00 pm84 °FScattered clouds.3 mph58%29.97 "HgN/A
1:00 pm82 °FScattered clouds.7 mph45%29.98 "HgN/A
12:00 pm82 °FPassing clouds.9 mph45%30.00 "HgN/A
11:00 am82 °FPassing clouds.8 mph45%30.04 "HgN/A
10:00 am81 °FPassing clouds.9 mph66%30.06 "HgN/A
9:00 am79 °FSunny.5 mph54%30.07 "Hg10 mi
8:00 am77 °FSunny.2 mph57%30.07 "Hg10 mi
7:00 am70 °FSunny.3 mph73%30.06 "Hg10 mi
6:00 am63 °FSunny.7 mph83%30.04 "Hg10 mi
5:00 am61 °FClear.6 mph94%30.05 "Hg10 mi
4:00 am63 °FClear.6 mph88%30.04 "Hg10 mi
3:00 am63 °FClear.3 mph88%30.01 "Hg10 mi
2:00 am64 °FClear.3 mph83%30.02 "Hg10 mi
Weather by CustomWeather, © 2016

See weather overviewHow to use our weather pages